Year,Month,Day,Hour,Minute,Value (Times are PST for temperature in C)
2018,07,14,00,00,17.70
2018,07,14,00,01,17.70
2018,07,14,00,02,17.70
2018,07,14,00,03,17.70
2018,07,14,00,04,17.70
2018,07,14,00,05,17.70
2018,07,14,00,06,17.60
2018,07,14,00,07,17.60
2018,07,14,00,08,17.60
2018,07,14,00,09,17.60
2018,07,14,00,10,17.50
2018,07,14,00,11,17.50
2018,07,14,00,12,17.40
2018,07,14,00,13,17.40
2018,07,14,00,14,17.40
2018,07,14,00,15,17.40
2018,07,14,00,16,17.50
2018,07,14,00,17,17.50
2018,07,14,00,18,17.40
2018,07,14,00,19,17.40
2018,07,14,00,20,17.40
2018,07,14,00,21,17.30
2018,07,14,00,22,17.30
2018,07,14,00,23,17.30
2018,07,14,00,24,17.30
2018,07,14,00,25,17.30
2018,07,14,00,26,17.20
2018,07,14,00,27,17.20
2018,07,14,00,28,17.20
2018,07,14,00,29,17.20
2018,07,14,00,30,17.10
2018,07,14,00,31,17.10
2018,07,14,00,32,17.10
2018,07,14,00,33,17.10
2018,07,14,00,34,17.10
2018,07,14,00,35,17.10
2018,07,14,00,36,17.10
2018,07,14,00,37,17.10
2018,07,14,00,38,17.10
2018,07,14,00,39,17.10
2018,07,14,00,40,17.10
2018,07,14,00,41,17.10
2018,07,14,00,42,17.10
2018,07,14,00,43,17.10
2018,07,14,00,44,17.10
2018,07,14,00,45,17.10
2018,07,14,00,46,17.10
2018,07,14,00,47,17.10
2018,07,14,00,48,17.00
2018,07,14,00,49,17.00
2018,07,14,00,50,17.00
2018,07,14,00,51,17.00
2018,07,14,00,52,16.90
2018,07,14,00,53,16.90
2018,07,14,00,54,16.90
2018,07,14,00,55,16.90
2018,07,14,00,56,16.90
2018,07,14,00,57,16.90
2018,07,14,00,58,16.90
2018,07,14,00,59,16.90
2018,07,14,01,00,16.90
2018,07,14,01,01,16.90
2018,07,14,01,02,16.90
2018,07,14,01,03,17.00
2018,07,14,01,04,16.90
2018,07,14,01,05,16.90
2018,07,14,01,06,16.90
2018,07,14,01,07,16.90
2018,07,14,01,08,16.90
2018,07,14,01,09,17.00
2018,07,14,01,10,17.00
2018,07,14,01,11,17.00
2018,07,14,01,12,17.00
2018,07,14,01,13,17.00
2018,07,14,01,14,17.00
2018,07,14,01,15,16.90
2018,07,14,01,16,16.90
2018,07,14,01,17,16.90
2018,07,14,01,18,16.90
2018,07,14,01,19,17.00
2018,07,14,01,20,17.00
2018,07,14,01,21,17.00
2018,07,14,01,22,17.00
2018,07,14,01,23,17.00
2018,07,14,01,24,16.90
2018,07,14,01,25,16.90
2018,07,14,01,26,16.90
2018,07,14,01,27,16.90
2018,07,14,01,28,16.90
2018,07,14,01,29,16.90
2018,07,14,01,30,17.00
2018,07,14,01,31,17.00
2018,07,14,01,32,17.10
2018,07,14,01,33,17.10
2018,07,14,01,34,17.10
2018,07,14,01,35,17.10
2018,07,14,01,36,17.10
2018,07,14,01,37,17.10
2018,07,14,01,38,17.10
2018,07,14,01,39,17.20
2018,07,14,01,40,17.20
2018,07,14,01,41,17.20
2018,07,14,01,42,17.20
2018,07,14,01,43,17.20
2018,07,14,01,44,17.20
2018,07,14,01,45,17.20
2018,07,14,01,46,17.20
2018,07,14,01,47,17.20
2018,07,14,01,48,17.20
2018,07,14,01,49,17.20
2018,07,14,01,50,17.20
2018,07,14,01,51,17.20
2018,07,14,01,52,17.30
2018,07,14,01,53,17.30
2018,07,14,01,54,17.30
2018,07,14,01,55,17.40
2018,07,14,01,56,17.40
2018,07,14,01,57,17.30
2018,07,14,01,58,17.30
2018,07,14,01,59,17.30
2018,07,14,02,00,17.30
2018,07,14,02,01,17.30
2018,07,14,02,02,17.30
2018,07,14,02,03,17.30
2018,07,14,02,04,17.40
2018,07,14,02,05,17.40
2018,07,14,02,06,17.50
2018,07,14,02,07,17.60
2018,07,14,02,08,17.60
2018,07,14,02,09,17.60
2018,07,14,02,10,17.60
2018,07,14,02,11,17.60
2018,07,14,02,12,17.60
2018,07,14,02,13,17.60
2018,07,14,02,14,17.60
2018,07,14,02,15,17.60
2018,07,14,02,16,17.50
2018,07,14,02,17,17.50
2018,07,14,02,18,17.40
2018,07,14,02,19,17.40
2018,07,14,02,20,17.30
2018,07,14,02,21,17.30
2018,07,14,02,22,17.30
2018,07,14,02,23,17.30
2018,07,14,02,24,17.30
2018,07,14,02,25,17.30
2018,07,14,02,26,17.20
2018,07,14,02,27,17.20
2018,07,14,02,28,17.20
2018,07,14,02,29,17.20
2018,07,14,02,30,17.20
2018,07,14,02,31,17.20
2018,07,14,02,32,17.10
2018,07,14,02,33,17.20
2018,07,14,02,34,17.20
2018,07,14,02,35,17.10
2018,07,14,02,36,17.10
2018,07,14,02,37,17.10
2018,07,14,02,38,17.00
2018,07,14,02,39,17.00
2018,07,14,02,40,17.00
2018,07,14,02,41,17.00
2018,07,14,02,42,17.10
2018,07,14,02,43,17.10
2018,07,14,02,44,17.00
2018,07,14,02,45,17.00
2018,07,14,02,46,17.00
2018,07,14,02,47,17.00
2018,07,14,02,48,17.00
2018,07,14,02,49,17.00
2018,07,14,02,50,17.00
2018,07,14,02,51,16.90
2018,07,14,02,52,16.90
2018,07,14,02,53,16.90
2018,07,14,02,54,16.90
2018,07,14,02,55,16.80
2018,07,14,02,56,16.80
2018,07,14,02,57,16.80
2018,07,14,02,58,16.80
2018,07,14,02,59,16.80
2018,07,14,03,00,16.80
2018,07,14,03,01,16.80
2018,07,14,03,02,16.80
2018,07,14,03,03,16.80
2018,07,14,03,04,16.80
2018,07,14,03,05,16.80
2018,07,14,03,06,16.80
2018,07,14,03,07,16.80
2018,07,14,03,08,16.80
2018,07,14,03,09,16.70
2018,07,14,03,10,16.70
2018,07,14,03,11,16.70
2018,07,14,03,12,16.70
2018,07,14,03,13,16.70
2018,07,14,03,14,16.70
2018,07,14,03,15,16.70
2018,07,14,03,16,16.70
2018,07,14,03,17,16.70
2018,07,14,03,18,16.70
2018,07,14,03,19,16.70
2018,07,14,03,20,16.70
2018,07,14,03,21,16.70
2018,07,14,03,22,16.70
2018,07,14,03,23,16.70
2018,07,14,03,24,16.70
2018,07,14,03,25,16.70
2018,07,14,03,26,16.70
2018,07,14,03,27,16.70
2018,07,14,03,28,16.70
2018,07,14,03,29,16.70
2018,07,14,03,30,16.70
2018,07,14,03,31,16.60
2018,07,14,03,32,16.60
2018,07,14,03,33,16.60
2018,07,14,03,34,16.60
2018,07,14,03,35,16.60
2018,07,14,03,36,16.60
2018,07,14,03,37,16.60
2018,07,14,03,38,16.60
2018,07,14,03,39,16.60
2018,07,14,03,40,16.60
2018,07,14,03,41,16.60
2018,07,14,03,42,16.50
2018,07,14,03,43,16.50
2018,07,14,03,44,16.50
2018,07,14,03,45,16.50
2018,07,14,03,46,16.50
2018,07,14,03,47,16.50
2018,07,14,03,48,16.50
2018,07,14,03,49,16.50
2018,07,14,03,50,16.50
2018,07,14,03,51,16.50
2018,07,14,03,52,16.50
2018,07,14,03,53,16.50
2018,07,14,03,54,16.50
2018,07,14,03,55,16.50
2018,07,14,03,56,16.50
2018,07,14,03,57,16.50
2018,07,14,03,58,16.50
2018,07,14,03,59,16.50
2018,07,14,04,00,16.50
2018,07,14,04,01,16.60
2018,07,14,04,02,16.60
2018,07,14,04,03,16.60
2018,07,14,04,04,16.60
2018,07,14,04,05,16.60
2018,07,14,04,06,16.60
2018,07,14,04,07,16.70
2018,07,14,04,08,16.70
2018,07,14,04,09,16.70
2018,07,14,04,10,16.70
2018,07,14,04,11,16.70
2018,07,14,04,12,16.70
2018,07,14,04,13,16.70
2018,07,14,04,14,16.70
2018,07,14,04,15,16.70
2018,07,14,04,16,16.60
2018,07,14,04,17,16.60
2018,07,14,04,18,16.60
2018,07,14,04,19,16.60
2018,07,14,04,20,16.60
2018,07,14,04,21,16.60
2018,07,14,04,22,16.60
2018,07,14,04,23,16.60
2018,07,14,04,24,16.60
2018,07,14,04,25,16.60
2018,07,14,04,26,16.60
2018,07,14,04,27,16.60
2018,07,14,04,28,16.60
2018,07,14,04,29,16.60
2018,07,14,04,30,16.60
2018,07,14,04,31,16.70
2018,07,14,04,32,16.70
2018,07,14,04,33,16.70
2018,07,14,04,34,16.60
2018,07,14,04,35,16.60
2018,07,14,04,36,16.60
2018,07,14,04,37,16.50
2018,07,14,04,38,16.50
2018,07,14,04,39,16.50
2018,07,14,04,40,16.50
2018,07,14,04,41,16.50
2018,07,14,04,42,16.60
2018,07,14,04,43,16.60
2018,07,14,04,44,16.60
2018,07,14,04,45,16.60
2018,07,14,04,46,16.70
2018,07,14,04,47,16.60
2018,07,14,04,48,16.60
2018,07,14,04,49,16.60
2018,07,14,04,50,16.60
2018,07,14,04,51,16.60
2018,07,14,04,52,16.60
2018,07,14,04,53,16.60
2018,07,14,04,54,16.60
2018,07,14,04,55,16.60
2018,07,14,04,56,16.60
2018,07,14,04,57,16.60
2018,07,14,04,58,16.60
2018,07,14,04,59,16.60
2018,07,14,05,00,16.60
2018,07,14,05,01,16.60
2018,07,14,05,02,16.60
2018,07,14,05,03,16.60
2018,07,14,05,04,16.50
2018,07,14,05,05,16.50
2018,07,14,05,06,16.50
2018,07,14,05,07,16.50
2018,07,14,05,08,16.40
2018,07,14,05,09,16.40
2018,07,14,05,10,16.40
2018,07,14,05,11,16.40
2018,07,14,05,12,16.30
2018,07,14,05,13,16.30
2018,07,14,05,14,16.30
2018,07,14,05,15,16.30
2018,07,14,05,16,16.30
2018,07,14,05,17,16.30
2018,07,14,05,18,16.30
2018,07,14,05,19,16.30
2018,07,14,05,20,16.30
2018,07,14,05,21,16.30
2018,07,14,05,22,16.30
2018,07,14,05,23,16.30
2018,07,14,05,24,16.30
2018,07,14,05,25,16.30
2018,07,14,05,26,16.30
2018,07,14,05,27,16.30
2018,07,14,05,28,16.20
2018,07,14,05,29,16.20
2018,07,14,05,30,16.20
2018,07,14,05,31,16.20
2018,07,14,05,32,16.20
2018,07,14,05,33,16.20
2018,07,14,05,34,16.30
2018,07,14,05,35,16.30
2018,07,14,05,36,16.30
2018,07,14,05,37,16.30
2018,07,14,05,38,16.30
2018,07,14,05,39,16.30
2018,07,14,05,40,16.20
2018,07,14,05,41,16.20
2018,07,14,05,42,16.20
2018,07,14,05,43,16.20
2018,07,14,05,44,16.20
2018,07,14,05,45,16.20
2018,07,14,05,46,16.20
2018,07,14,05,47,16.30
2018,07,14,05,48,16.30
2018,07,14,05,49,16.30
2018,07,14,05,50,16.20
2018,07,14,05,51,16.20
2018,07,14,05,52,16.10
2018,07,14,05,53,16.00
2018,07,14,05,54,15.90
2018,07,14,05,55,15.80
2018,07,14,05,56,15.70
2018,07,14,05,57,15.70
2018,07,14,05,58,15.60
2018,07,14,05,59,15.50
2018,07,14,06,00,15.40
2018,07,14,06,01,15.30
2018,07,14,06,02,15.20
2018,07,14,06,03,15.10
2018,07,14,06,04,15.00
2018,07,14,06,05,14.90
2018,07,14,06,06,14.80
2018,07,14,06,07,14.80
2018,07,14,06,08,14.70
2018,07,14,06,09,14.60
2018,07,14,06,10,14.50
2018,07,14,06,11,14.50
2018,07,14,06,12,14.40
2018,07,14,06,13,14.30
2018,07,14,06,14,14.30
2018,07,14,06,15,14.20
2018,07,14,06,16,14.20
2018,07,14,06,17,14.10
2018,07,14,06,18,14.10
2018,07,14,06,19,14.10
2018,07,14,06,20,14.10
2018,07,14,06,21,14.00
2018,07,14,06,22,14.00
2018,07,14,06,23,13.90
2018,07,14,06,24,13.80
2018,07,14,06,25,13.80
2018,07,14,06,26,13.70
2018,07,14,06,27,13.70
2018,07,14,06,28,13.70
2018,07,14,06,29,13.60
2018,07,14,06,30,13.60
2018,07,14,06,31,13.50
2018,07,14,06,32,13.50
2018,07,14,06,33,13.40
2018,07,14,06,34,13.30
2018,07,14,06,35,13.30
2018,07,14,06,36,13.20
2018,07,14,06,37,13.10
2018,07,14,06,38,13.10
2018,07,14,06,39,13.10
2018,07,14,06,40,13.00
2018,07,14,06,41,12.90
2018,07,14,06,42,12.90
2018,07,14,06,43,13.00
2018,07,14,06,44,13.00
2018,07,14,06,45,13.10
2018,07,14,06,46,13.10
2018,07,14,06,47,13.10
2018,07,14,06,48,13.10
2018,07,14,06,49,13.10
2018,07,14,06,50,13.00
2018,07,14,06,51,13.10
2018,07,14,06,52,13.10
2018,07,14,06,53,13.20
2018,07,14,06,54,13.30
2018,07,14,06,55,13.50
2018,07,14,06,56,13.60
2018,07,14,06,57,13.80
2018,07,14,06,58,13.90
2018,07,14,06,59,14.00
2018,07,14,07,00,14.00
2018,07,14,07,01,14.00
2018,07,14,07,02,14.00
2018,07,14,07,03,14.00
2018,07,14,07,04,14.00
2018,07,14,07,05,14.10
2018,07,14,07,06,14.30
2018,07,14,07,07,14.60
2018,07,14,07,08,14.80
2018,07,14,07,09,14.90
2018,07,14,07,10,15.00
2018,07,14,07,11,15.00
2018,07,14,07,12,15.00
2018,07,14,07,13,15.00
2018,07,14,07,14,14.90
2018,07,14,07,15,14.90
2018,07,14,07,16,15.00
2018,07,14,07,17,15.00
2018,07,14,07,18,15.10
2018,07,14,07,19,15.20
2018,07,14,07,20,15.30
2018,07,14,07,21,15.30
2018,07,14,07,22,15.30
2018,07,14,07,23,15.30
2018,07,14,07,24,15.30
2018,07,14,07,25,15.30
2018,07,14,07,26,15.30
2018,07,14,07,27,15.30
2018,07,14,07,28,15.30
2018,07,14,07,29,15.40
2018,07,14,07,30,15.40
2018,07,14,07,31,15.40
2018,07,14,07,32,15.40
2018,07,14,07,33,15.40
2018,07,14,07,34,15.40
2018,07,14,07,35,15.40
2018,07,14,07,36,15.40
2018,07,14,07,37,15.40
2018,07,14,07,38,15.40
2018,07,14,07,39,15.50
2018,07,14,07,40,15.60
2018,07,14,07,41,15.60
2018,07,14,07,42,15.60
2018,07,14,07,43,15.60
2018,07,14,07,44,15.60
2018,07,14,07,45,15.60
2018,07,14,07,46,15.60
2018,07,14,07,47,15.60
2018,07,14,07,48,15.60
2018,07,14,07,49,15.60
2018,07,14,07,50,15.60
2018,07,14,07,51,15.60
2018,07,14,07,52,15.60
2018,07,14,07,53,15.70
2018,07,14,07,54,15.70
2018,07,14,07,55,15.70
2018,07,14,07,56,15.70
2018,07,14,07,57,15.80
2018,07,14,07,58,15.80
2018,07,14,07,59,15.80
2018,07,14,08,00,15.80
2018,07,14,08,01,15.80
2018,07,14,08,02,15.80
2018,07,14,08,03,15.90
2018,07,14,08,04,15.90
2018,07,14,08,05,15.90
2018,07,14,08,06,15.90
2018,07,14,08,07,15.90
2018,07,14,08,08,15.90
2018,07,14,08,09,15.90
2018,07,14,08,10,15.90
2018,07,14,08,11,15.90
2018,07,14,08,12,15.90
2018,07,14,08,13,15.90
2018,07,14,08,14,15.90
2018,07,14,08,15,15.90
2018,07,14,08,16,15.90
2018,07,14,08,17,15.90
2018,07,14,08,18,15.80
2018,07,14,08,19,15.80
2018,07,14,08,20,15.80
2018,07,14,08,21,15.80
2018,07,14,08,22,15.80
2018,07,14,08,23,15.80
2018,07,14,08,24,15.80
2018,07,14,08,25,15.80
2018,07,14,08,26,15.80
2018,07,14,08,27,15.80
2018,07,14,08,28,15.80
2018,07,14,08,29,15.90
2018,07,14,08,30,16.00
2018,07,14,08,31,16.00
2018,07,14,08,32,16.10
2018,07,14,08,33,16.20
2018,07,14,08,34,16.20
2018,07,14,08,35,16.20
2018,07,14,08,36,16.20
2018,07,14,08,37,16.30
2018,07,14,08,38,16.20
2018,07,14,08,39,16.20
2018,07,14,08,40,16.20
2018,07,14,08,41,16.20
2018,07,14,08,42,16.30
2018,07,14,08,43,16.40
2018,07,14,08,44,16.40
2018,07,14,08,45,16.50
2018,07,14,08,46,16.60
2018,07,14,08,47,16.60
2018,07,14,08,48,16.60
2018,07,14,08,49,16.60
2018,07,14,08,50,16.60
2018,07,14,08,51,16.70
2018,07,14,08,52,16.80
2018,07,14,08,53,16.80
2018,07,14,08,54,16.90
2018,07,14,08,55,16.90
2018,07,14,08,56,17.00
2018,07,14,08,57,17.00
2018,07,14,08,58,17.00
2018,07,14,08,59,17.00
2018,07,14,09,00,17.00
2018,07,14,09,01,17.00
2018,07,14,09,02,17.00
2018,07,14,09,03,16.90
2018,07,14,09,04,16.90
2018,07,14,09,05,16.90
2018,07,14,09,06,16.90
2018,07,14,09,07,16.90
2018,07,14,09,08,16.90
2018,07,14,09,09,17.00
2018,07,14,09,10,17.00
2018,07,14,09,11,17.00
2018,07,14,09,12,17.10
2018,07,14,09,13,17.20
2018,07,14,09,14,17.20
2018,07,14,09,15,17.20
2018,07,14,09,16,17.30
2018,07,14,09,17,17.30
2018,07,14,09,18,17.30
2018,07,14,09,19,17.30
2018,07,14,09,20,17.40
2018,07,14,09,21,17.40
2018,07,14,09,22,17.40
2018,07,14,09,23,17.50
2018,07,14,09,24,17.50
2018,07,14,09,25,17.60
2018,07,14,09,26,17.60
2018,07,14,09,27,17.70
2018,07,14,09,28,17.70
2018,07,14,09,29,17.70
2018,07,14,09,30,17.70
2018,07,14,09,31,17.70
2018,07,14,09,32,17.80
2018,07,14,09,33,17.80
2018,07,14,09,34,17.80
2018,07,14,09,35,17.80
2018,07,14,09,36,17.90
2018,07,14,09,37,17.90
2018,07,14,09,38,18.00
2018,07,14,09,39,18.00
2018,07,14,09,40,18.10
2018,07,14,09,41,18.10
2018,07,14,09,42,18.10
2018,07,14,09,43,18.10
2018,07,14,09,44,18.10
2018,07,14,09,45,18.10
2018,07,14,09,46,18.10
2018,07,14,09,47,18.10
2018,07,14,09,48,18.10
2018,07,14,09,49,18.20
2018,07,14,09,50,18.20
2018,07,14,09,51,18.30
2018,07,14,09,52,18.40
2018,07,14,09,53,18.50
2018,07,14,09,54,18.60
2018,07,14,09,55,18.70
2018,07,14,09,56,18.80
2018,07,14,09,57,18.80
2018,07,14,09,58,18.90
2018,07,14,09,59,18.90
2018,07,14,10,00,18.90
2018,07,14,10,01,19.00
2018,07,14,10,02,19.00
2018,07,14,10,03,19.00
2018,07,14,10,04,19.10
2018,07,14,10,05,19.20
2018,07,14,10,06,19.20
2018,07,14,10,07,19.20
2018,07,14,10,08,19.30
2018,07,14,10,09,19.30
2018,07,14,10,10,19.40
2018,07,14,10,11,19.50
2018,07,14,10,12,19.50
2018,07,14,10,13,19.60
2018,07,14,10,14,19.60
2018,07,14,10,15,19.70
2018,07,14,10,16,19.80
2018,07,14,10,17,19.90
2018,07,14,10,18,19.90
2018,07,14,10,19,19.90
2018,07,14,10,20,19.80
2018,07,14,10,21,19.80
2018,07,14,10,22,19.80
2018,07,14,10,23,19.80
2018,07,14,10,24,19.80
2018,07,14,10,25,19.80
2018,07,14,10,26,19.80
2018,07,14,10,27,19.80
2018,07,14,10,28,19.80
2018,07,14,10,29,19.80
2018,07,14,10,30,19.80
2018,07,14,10,31,19.90
2018,07,14,10,32,19.90
2018,07,14,10,33,20.00
2018,07,14,10,34,20.00
2018,07,14,10,35,20.00
2018,07,14,10,36,20.00
2018,07,14,10,37,20.10
2018,07,14,10,38,20.10
2018,07,14,10,39,20.20
2018,07,14,10,40,20.30
2018,07,14,10,41,20.40
2018,07,14,10,42,20.40
2018,07,14,10,43,20.50
2018,07,14,10,44,20.50
2018,07,14,10,45,20.60
2018,07,14,10,46,20.60
2018,07,14,10,47,20.70
2018,07,14,10,48,20.70
2018,07,14,10,49,20.70
2018,07,14,10,50,20.70
2018,07,14,10,51,20.80
2018,07,14,10,52,20.80
2018,07,14,10,53,20.80
2018,07,14,10,54,20.90
2018,07,14,10,55,20.90
2018,07,14,10,56,21.00
2018,07,14,10,57,21.10
2018,07,14,10,58,21.10
2018,07,14,10,59,21.20
2018,07,14,11,00,21.20
2018,07,14,11,01,21.30
2018,07,14,11,02,21.30
2018,07,14,11,03,21.40
2018,07,14,11,04,21.40
2018,07,14,11,05,21.40
2018,07,14,11,06,21.50
2018,07,14,11,07,21.60
2018,07,14,11,08,21.70
2018,07,14,11,09,21.80
2018,07,14,11,10,21.90
2018,07,14,11,11,22.00
2018,07,14,11,12,22.10
2018,07,14,11,13,22.20
2018,07,14,11,14,22.30
2018,07,14,11,15,22.30
2018,07,14,11,16,22.40
2018,07,14,11,17,22.50
2018,07,14,11,18,22.60
2018,07,14,11,19,22.70
2018,07,14,11,20,22.80
2018,07,14,11,21,22.80
2018,07,14,11,22,22.90
2018,07,14,11,23,22.90
2018,07,14,11,24,23.00
2018,07,14,11,25,23.10
2018,07,14,11,26,23.10
2018,07,14,11,27,23.20
2018,07,14,11,28,23.30
2018,07,14,11,29,23.30
2018,07,14,11,30,23.40
2018,07,14,11,31,23.40
2018,07,14,11,32,23.40
2018,07,14,11,33,23.50
2018,07,14,11,34,23.50
2018,07,14,11,35,23.50
2018,07,14,11,36,23.50
2018,07,14,11,37,23.50
2018,07,14,11,38,23.50
2018,07,14,11,39,23.60
2018,07,14,11,40,23.60
2018,07,14,11,41,23.60
2018,07,14,11,42,23.50
2018,07,14,11,43,23.50
2018,07,14,11,44,23.50
2018,07,14,11,45,23.60
2018,07,14,11,46,23.60
2018,07,14,11,47,23.60
2018,07,14,11,48,23.70
2018,07,14,11,49,23.80
2018,07,14,11,50,23.90
2018,07,14,11,51,24.00
2018,07,14,11,52,24.00
2018,07,14,11,53,24.10
2018,07,14,11,54,24.20
2018,07,14,11,55,24.20
2018,07,14,11,56,24.20
2018,07,14,11,57,24.20
2018,07,14,11,58,24.30
2018,07,14,11,59,24.30
2018,07,14,12,00,24.30
2018,07,14,12,01,24.30
2018,07,14,12,02,24.30
2018,07,14,12,03,24.30
2018,07,14,12,04,24.30
2018,07,14,12,05,24.40
2018,07,14,12,06,24.40
2018,07,14,12,07,24.50
2018,07,14,12,08,24.60
2018,07,14,12,09,24.60
2018,07,14,12,10,24.70
2018,07,14,12,11,24.80
2018,07,14,12,12,24.90
2018,07,14,12,13,24.90
2018,07,14,12,14,25.00
2018,07,14,12,15,25.00
2018,07,14,12,16,25.10
2018,07,14,12,17,25.10
2018,07,14,12,18,25.20
2018,07,14,12,19,25.20
2018,07,14,12,20,25.20
2018,07,14,12,21,25.30
2018,07,14,12,22,25.20
2018,07,14,12,23,25.20
2018,07,14,12,24,25.10
2018,07,14,12,25,25.10
2018,07,14,12,26,25.00
2018,07,14,12,27,24.90
2018,07,14,12,28,24.90
2018,07,14,12,29,24.90
2018,07,14,12,30,24.80
2018,07,14,12,31,24.80
2018,07,14,12,32,24.80
2018,07,14,12,33,24.80
2018,07,14,12,34,24.80
2018,07,14,12,35,24.80
2018,07,14,12,36,24.90
2018,07,14,12,37,24.90
2018,07,14,12,38,24.90
2018,07,14,12,39,24.90
2018,07,14,12,40,24.90
2018,07,14,12,41,24.90
2018,07,14,12,42,25.00
2018,07,14,12,43,25.00
2018,07,14,12,44,25.00
2018,07,14,12,45,25.00
2018,07,14,12,46,25.00
2018,07,14,12,47,24.90
2018,07,14,12,48,24.90
2018,07,14,12,49,25.00
2018,07,14,12,50,25.00
2018,07,14,12,51,25.10
2018,07,14,12,52,25.10
2018,07,14,12,53,25.10
2018,07,14,12,54,25.20
2018,07,14,12,55,25.30
2018,07,14,12,56,25.40
2018,07,14,12,57,25.60
2018,07,14,12,58,25.70
2018,07,14,12,59,25.80
2018,07,14,13,00,25.90
2018,07,14,13,01,25.90
2018,07,14,13,02,26.00
2018,07,14,13,03,26.00
2018,07,14,13,04,26.10
2018,07,14,13,05,26.10
2018,07,14,13,06,26.10
2018,07,14,13,07,26.10
2018,07,14,13,08,26.10
2018,07,14,13,09,26.10
2018,07,14,13,10,26.00
2018,07,14,13,11,26.00
2018,07,14,13,12,26.10
2018,07,14,13,13,26.10
2018,07,14,13,14,26.10
2018,07,14,13,15,26.20
2018,07,14,13,16,26.20
2018,07,14,13,17,26.20
2018,07,14,13,18,26.20
2018,07,14,13,19,26.10
2018,07,14,13,20,26.10
2018,07,14,13,21,26.20
2018,07,14,13,22,26.20
2018,07,14,13,23,26.20
2018,07,14,13,24,26.20
2018,07,14,13,25,26.20
2018,07,14,13,26,26.20
2018,07,14,13,27,26.20
2018,07,14,13,28,26.20
2018,07,14,13,29,26.30
2018,07,14,13,30,26.30
2018,07,14,13,31,26.30
2018,07,14,13,32,26.40
2018,07,14,13,33,26.40
2018,07,14,13,34,26.40
2018,07,14,13,35,26.40
2018,07,14,13,36,26.40
2018,07,14,13,37,26.40
2018,07,14,13,38,26.40
2018,07,14,13,39,26.40
2018,07,14,13,40,26.40
2018,07,14,13,41,26.40
2018,07,14,13,42,26.40
2018,07,14,13,43,26.40
2018,07,14,13,44,26.40
2018,07,14,13,45,26.40
2018,07,14,13,46,26.40
2018,07,14,13,47,26.50
2018,07,14,13,48,26.60
2018,07,14,13,49,26.60
2018,07,14,13,50,26.60
2018,07,14,13,51,26.70
2018,07,14,13,52,26.80
2018,07,14,13,53,26.80
2018,07,14,13,54,26.80
2018,07,14,13,55,26.80
2018,07,14,13,56,26.80
2018,07,14,13,57,26.80
2018,07,14,13,58,26.80
2018,07,14,13,59,26.80
2018,07,14,14,00,26.70
2018,07,14,14,01,26.50
2018,07,14,14,02,26.40
2018,07,14,14,03,26.30
2018,07,14,14,04,26.30
2018,07,14,14,05,26.30
2018,07,14,14,06,26.30
2018,07,14,14,07,26.20
2018,07,14,14,08,26.20
2018,07,14,14,09,26.20
2018,07,14,14,10,26.20
2018,07,14,14,11,26.20
2018,07,14,14,12,26.20
2018,07,14,14,13,26.30
2018,07,14,14,14,26.40
2018,07,14,14,15,26.50
2018,07,14,14,16,26.60
2018,07,14,14,17,26.60
2018,07,14,14,18,26.70
2018,07,14,14,19,26.70
2018,07,14,14,20,26.70
2018,07,14,14,21,26.80
2018,07,14,14,22,26.80
2018,07,14,14,23,26.80
2018,07,14,14,24,26.80
2018,07,14,14,25,26.80
2018,07,14,14,26,26.80
2018,07,14,14,27,26.80
2018,07,14,14,28,26.70
2018,07,14,14,29,26.70
2018,07,14,14,30,26.60
2018,07,14,14,31,26.60
2018,07,14,14,32,26.60
2018,07,14,14,33,26.60
2018,07,14,14,34,26.70
2018,07,14,14,35,26.90
2018,07,14,14,36,27.00
2018,07,14,14,37,27.00
2018,07,14,14,38,27.00
2018,07,14,14,39,26.90
2018,07,14,14,40,26.80
2018,07,14,14,41,26.80
2018,07,14,14,42,26.80
2018,07,14,14,43,26.70
2018,07,14,14,44,26.70
2018,07,14,14,45,26.80
2018,07,14,14,46,26.80
2018,07,14,14,47,26.90
2018,07,14,14,48,26.90
2018,07,14,14,49,26.90
2018,07,14,14,50,27.00
2018,07,14,14,51,27.20
2018,07,14,14,52,27.30
2018,07,14,14,53,27.50
2018,07,14,14,54,27.50
2018,07,14,14,55,27.60
2018,07,14,14,56,27.50
2018,07,14,14,57,27.50
2018,07,14,14,58,27.50
2018,07,14,14,59,27.50
2018,07,14,15,00,27.50
2018,07,14,15,01,27.50
2018,07,14,15,02,27.50
2018,07,14,15,03,27.40
2018,07,14,15,04,27.30
2018,07,14,15,05,27.30
2018,07,14,15,06,27.40
2018,07,14,15,07,27.40
2018,07,14,15,08,27.40
2018,07,14,15,09,27.40
2018,07,14,15,10,27.40
2018,07,14,15,11,27.40
2018,07,14,15,12,27.40
2018,07,14,15,13,27.40
2018,07,14,15,14,27.40
2018,07,14,15,15,27.40
2018,07,14,15,16,27.50
2018,07,14,15,17,27.50
2018,07,14,15,18,27.60
2018,07,14,15,19,27.50
2018,07,14,15,20,27.60
2018,07,14,15,21,27.50
2018,07,14,15,22,27.50
2018,07,14,15,23,27.40
2018,07,14,15,24,27.30
2018,07,14,15,25,27.40
2018,07,14,15,26,27.40
2018,07,14,15,27,27.40
2018,07,14,15,28,27.50
2018,07,14,15,29,27.60
2018,07,14,15,30,27.60
2018,07,14,15,31,27.60
2018,07,14,15,32,27.70
2018,07,14,15,33,27.70
2018,07,14,15,34,27.80
2018,07,14,15,35,27.80
2018,07,14,15,36,27.80
2018,07,14,15,37,27.80
2018,07,14,15,38,27.80
2018,07,14,15,39,27.80
2018,07,14,15,40,27.80
2018,07,14,15,41,27.70
2018,07,14,15,42,27.70
2018,07,14,15,43,27.70
2018,07,14,15,44,27.70
2018,07,14,15,45,27.70
2018,07,14,15,46,27.70
2018,07,14,15,47,27.70
2018,07,14,15,48,27.70
2018,07,14,15,49,27.70
2018,07,14,15,50,27.70
2018,07,14,15,51,27.70
2018,07,14,15,52,27.70
2018,07,14,15,53,27.70
2018,07,14,15,54,27.80
2018,07,14,15,55,27.80
2018,07,14,15,56,27.80
2018,07,14,15,57,27.80
2018,07,14,15,58,27.80
2018,07,14,15,59,27.80
2018,07,14,16,00,27.80
2018,07,14,16,01,27.70
2018,07,14,16,02,27.70
2018,07,14,16,03,27.70
2018,07,14,16,04,27.70
2018,07,14,16,05,27.70
2018,07,14,16,06,27.80
2018,07,14,16,07,27.80
2018,07,14,16,08,27.80
2018,07,14,16,09,27.80
2018,07,14,16,10,27.80
2018,07,14,16,11,27.70
2018,07,14,16,12,27.70
2018,07,14,16,13,27.60
2018,07,14,16,14,27.60
2018,07,14,16,15,27.60
2018,07,14,16,16,27.60
2018,07,14,16,17,27.60
2018,07,14,16,18,27.60
2018,07,14,16,19,27.60
2018,07,14,16,20,27.60
2018,07,14,16,21,27.50
2018,07,14,16,22,27.40
2018,07,14,16,23,27.30
2018,07,14,16,24,27.20
2018,07,14,16,25,27.20
2018,07,14,16,26,27.20
2018,07,14,16,27,27.20
2018,07,14,16,28,27.30
2018,07,14,16,29,27.40
2018,07,14,16,30,27.40
2018,07,14,16,31,27.50
2018,07,14,16,32,27.50
2018,07,14,16,33,27.50
2018,07,14,16,34,27.50
2018,07,14,16,35,27.50
2018,07,14,16,36,27.50
2018,07,14,16,37,27.50
2018,07,14,16,38,27.50
2018,07,14,16,39,27.50
2018,07,14,16,40,27.40
2018,07,14,16,41,27.40
2018,07,14,16,42,27.50
2018,07,14,16,43,27.50
2018,07,14,16,44,27.50
2018,07,14,16,45,27.40
2018,07,14,16,46,27.40
2018,07,14,16,47,27.40
2018,07,14,16,48,27.40
2018,07,14,16,49,27.40
2018,07,14,16,50,27.30
2018,07,14,16,51,27.30
2018,07,14,16,52,27.20
2018,07,14,16,53,27.00
2018,07,14,16,54,26.80
2018,07,14,16,55,26.60
2018,07,14,16,56,26.50
2018,07,14,16,57,26.40
2018,07,14,16,58,26.20
2018,07,14,16,59,26.00
2018,07,14,17,00,25.80
2018,07,14,17,01,25.80
2018,07,14,17,02,25.70
2018,07,14,17,03,25.70
2018,07,14,17,04,25.80
2018,07,14,17,05,25.80
2018,07,14,17,06,25.80
2018,07,14,17,07,25.80
2018,07,14,17,08,25.70
2018,07,14,17,09,25.60
2018,07,14,17,10,25.50
2018,07,14,17,11,25.50
2018,07,14,17,12,25.60
2018,07,14,17,13,25.70
2018,07,14,17,14,25.70
2018,07,14,17,15,25.70
2018,07,14,17,16,25.80
2018,07,14,17,17,25.80
2018,07,14,17,18,26.00
2018,07,14,17,19,26.10